Miscellaneous Local Product
Issued by NWS Hastings, NE

Home | Current Version | Previous Version | Graphics & Text | Print | Product List | Glossary On
Versions: 1 2 3 4 5 6 7 8 9 10 11 12 13 14 15 16 17 18 19 20 21 22 23 24 25 26 27 28 29 30 31 32 33 34 35 36 37 38 39 40 41 42 43 44 45 46 47 48 49 50
000
AXUS43 KGID 171902
MISGRI

GID CWA HOURLY WEATHER ROUNDUP
NATIONAL WEATHER SERVICE HASTINGS NE
200 PM CDT WED SEP 17 2014

NOTE: "FAIR" INDICATES FEW OR NO CLOUDS BELOW 12,000 FEET WITH NO
SIGNIFICANT WEATHER AND/OR OBSTRUCTIONS TO VISIBILITY.

...SOUTH CENTRAL NEBRASKA...

CITY           SKY/WX    TMP DP  RH WIND       PRES   REMARKS
GRAND ISLAND   SUNNY     80  63  55 E9        29.92F
HASTINGS       SUNNY     77  60  55 SE13      29.92F
KEARNEY        MOSUNNY   79  63  57 E10       29.93F
ORD            SUNNY     80  62  54 E8        29.90F
YORK           SUNNY     75  64  69 E7        29.92S
AURORA         SUNNY     78  62  57 E7        29.92S
LEXINGTON      MOSUNNY   79  63  57 SE9       29.93F
HOLDREGE       MOSUNNY   79  60  52 SE9       29.93S
HEBRON         SUNNY     76  64  64 E8        29.91F

...NEBRASKA PANHANDLE...

CITY           SKY/WX    TMP DP  RH WIND       PRES   REMARKS
CHADRON        SUNNY     81  51  35 SE5       29.95F
ALLIANCE       SUNNY     83  46  27 E6        29.97F
SCOTTSBLUFF    SUNNY     85  43  22 CALM      29.97F
SIDNEY         SUNNY     87  43  21 VRB6      30.01F

...WESTERN AND NORTH CENTRAL NEBRASKA...

CITY           SKY/WX    TMP DP  RH WIND       PRES   REMARKS
VALENTINE      SUNNY     83  54  36 E7        29.93F
AINSWORTH      SUNNY     79  54  42 E6        29.94S
ONEILL         SUNNY     80  59  50 E7        29.93S
BROKEN BOW     SUNNY     85  59  41 SE8       29.92F
IMPERIAL       SUNNY     85  49  28 S6        29.94F
NORTH PLATTE   SUNNY     82  60  47 SE9       29.92F
MCCOOK         SUNNY     80  60  50 S8        29.93F

...EASTERN NEBRASKA...

CITY           SKY/WX    TMP DP  RH WIND       PRES   REMARKS
NORFOLK        SUNNY     78  62  57 SE8       29.91F
SO SIOUX CITY  SUNNY     78  61  55 VRB6      29.91F
TEKAMAH        SUNNY     80  59  48 NE6       29.91F
ALBION         SUNNY     78  61  55 SE7       29.91F
OMAHA EPPLEY   MOSUNNY   77  60  55 E7        29.91F
OFFUTT AFB     SUNNY     78  66  67 VRB3      29.91F
MILLARD        SUNNY     76  63  62 SE3       29.91F
LINCOLN        SUNNY     77  64  64 E12       29.92F
NEBRASKA CITY  SUNNY     74  59  60 E7        29.93F
BEATRICE       MOSUNNY   77  65  65 SE10      29.91F
FALLS CITY     MOSUNNY   76  66  71 SE7       29.92F

...NORTHERN KANSAS...

CITY           SKY/WX    TMP DP  RH WIND       PRES   REMARKS
GOODLAND       SUNNY     88  52  29 S12       29.96F
HILL CITY      SUNNY     81  63  54 E8        29.92F
NORTON         CLEAR     81  55  41 E10       29.92
PHILLIPSBURG   SUNNY     79  61  53 E8        29.91F
SMITH CENTER   SUNNY     79  64  61 SE12G18   29.91F
BELOIT         SUNNY     81  66  61 E8G17     29.89F
HAYS           SUNNY     82  64  54 SE7       29.90F
RUSSELL        SUNNY     82  66  58 E8        29.89F
CONCORDIA      CLOUDY    75  67  76 E12       29.91F
SALINA         SUNNY     83  67  58 NE8       29.88F
TOPEKA         CLOUDY    76  69  79 NE7       29.92S



USA.gov is the U.S. government's official web portal to all federal, state and local government web resources and services.